Voltar ao catálogo

CZ-6A DEB

AtivoSSO
NORAD 54281·DEBRIS·🇨🇳 China

Lançado Nov 11, 2022 de Taiyuan Satellite Launch Center

Loading…

Próximas Passagens (próximas 24 horas)

TLE

AtualizadoSource: Space-Track

Época: Sep 14, 2026, 12:14 UTC

1 54281U 22151Y   26257.51027934  .00000183  00000-0  74392-4 0  9995
2 54281  98.5852 280.9228 0103169 111.8888 249.3305 14.35614926200543

Acompanhe CZ-6A DEB em tempo real com AllMySat

Download on the App Store